Home   Weather   Larvik   Past weeks

Flag for Norway Past Weather in Larvik, Norway — Yesterday and Last 2 Weeks

Now
61 °F

Scattered clouds.


Feels Like: 61 °F
Forecast: 50 / 59 °F
Wind: 23 mph from Southwest

Location: Torp

Current Time: Sep 29, 2016 at 10:34:04 AM

Latest Report: Sep 29, 2016 at 9:50 AM


Visibility: N/A

Pressure: 29.27 "Hg

Humidity: 100%

Dew Point: 61 °F

Location of LarvikLocation

Past Weather in Larvik — Graph

°F

Larvik Temperature Yesterday

Maximum temperature yesterday: 63 °F (at 5:50 PM)
Minimum temperature yesterday: 54 °F (at 6:50 AM)
Average temperature yesterday: 58 °F

High & Low Weather Summary for the Past Weeks

 TemperatureHumidityPressure
High72 °F (Sep 14, 3:20 PM)100% (Sep 14, 9:20 AM)30.24 "Hg (Sep 14, 9:20 AM)
Low43 °F (Sep 24, 6:20 AM)53% (Sep 20, 3:50 PM)29.27 "Hg (Sep 29, 8:50 AM)
Average58 °F92%30.08 "Hg
* Reported Sep 14 9:20 AM — Sep 29 9:20 AM, Larvik, Weather by CustomWeather, © 2016

Note: Actual official high and low records may vary slightly from our data, if they occured in-between our weather recording intervals... More about our weather records

Advertising

Larvik Weather History for the Previous 24 Hours

Scroll right to see more
 ConditionsComfort  
Time TempWeatherWind HumidityBarometerVisibility
9:20 AM
Thu, Sep 29
61 °FBroken clouds.23 mph100%29.27 "HgN/A
8:50 AM61 °FLow clouds.23 mph100%29.27 "HgN/A
8:20 AM61 °FDrizzle. Low clouds.24 mph100%29.30 "HgN/A
7:50 AM61 °FDrizzle. Low clouds.23 mph100%29.30 "HgN/A
7:20 AM61 °FLow clouds.23 mph100%29.33 "HgN/A
6:50 AM61 °FLow clouds.24 mph100%29.33 "Hg4 mi
6:20 AM61 °FDrizzle. Mostly cloudy.17 mph100%29.36 "Hg3 mi
5:50 AM57 °FDrizzle. Fog.10 mph100%29.39 "Hg2 mi
5:20 AM55 °FDrizzle. Fog.14 mph100%29.45 "Hg3 mi
4:50 AM54 °FDrizzle. Mostly cloudy.10 mph100%29.47 "Hg2 mi
4:20 AM52 °FLight rain. Mostly cloudy.8 mph100%29.50 "Hg3 mi
3:50 AM52 °FPassing clouds.8 mph100%29.56 "HgN/A
3:20 AM54 °FDrizzle. Overcast.8 mph94%29.59 "HgN/A
2:50 AM54 °FMostly cloudy.12 mph88%29.59 "HgN/A
2:20 AM54 °FOvercast.12 mph82%29.62 "HgN/A
1:50 AM55 °FOvercast.10 mph72%29.65 "HgN/A
1:20 AM55 °FMostly cloudy.10 mph72%29.65 "HgN/A
12:50 AM55 °FPassing clouds.12 mph67%29.68 "HgN/A
12:20 AM55 °FPassing clouds.8 mph67%29.65 "HgN/A
11:50 PM
Wed, Sep 28
55 °FPassing clouds.7 mph63%29.65 "HgN/A
11:20 PM55 °FPassing clouds.6 mph67%29.65 "HgN/A
10:50 PM55 °FClear.9 mph67%29.68 "Hg10 mi
10:20 PM55 °FClear.8 mph67%29.65 "Hg10 mi
9:50 PM55 °FClear.8 mph67%29.68 "Hg10 mi
9:20 PM55 °FClear.8 mph67%29.68 "Hg10 mi
8:50 PM57 °FPassing clouds.6 mph63%29.65 "HgN/A
8:20 PM57 °FPassing clouds.9 mph63%29.65 "HgN/A
6:50 PM59 °FSunny.8 mph59%29.62 "Hg10 mi
6:20 PM61 °FPassing clouds.9 mph63%29.62 "HgN/A
5:50 PM63 °FPassing clouds.10 mph64%29.62 "HgN/A
5:20 PM61 °FSunny.12 mph77%29.59 "Hg10 mi
4:50 PM61 °FSunny.12 mph77%29.59 "Hg10 mi
4:20 PM61 °FSunny.15 mph72%29.59 "Hg10 mi
3:50 PM59 °FSunny.15 mph77%29.59 "Hg10 mi
3:20 PM61 °FScattered clouds.15 mph68%29.59 "HgN/A
2:50 PM61 °FSunny.13 mph72%29.59 "Hg10 mi
2:20 PM61 °FPartly sunny.15 mph68%29.59 "HgN/A
1:50 PM59 °FPartly sunny.15 mph72%29.59 "HgN/A
1:20 PM61 °FPartly sunny.17 mph59%29.59 "HgN/A
12:50 PM61 °FScattered clouds.16 mph63%29.59 "HgN/A
12:20 PM61 °FSunny.15 mph63%29.59 "Hg10 mi
11:50 AM61 °FSunny.15 mph63%29.59 "Hg10 mi
11:20 AM59 °FSunny.13 mph68%29.59 "Hg10 mi
10:50 AM59 °FSunny.13 mph72%29.59 "Hg10 mi
10:20 AM57 °FPassing clouds.9 mph82%29.56 "HgN/A
Weather by CustomWeather, © 2016

See weather overviewHow to use our weather pages